• In Moldova, Republic
  • List of Countries
  • For 7 days
  • Water Temperature
  • Satellite Maps
  • Weather Map
  • Weather Widgets
  • user-avatar
    Login

    Hourly Weather Malanje

    Today, 29 June, Thursday

    Time Temperature Precipitation Wind Pressure Humidity
    00:00 +18°C° 0 mm 2 mps 666 mmHg 41%
    01:00 +17°C° 0 mm 2 mps 666 mmHg 43%
    02:00 +17°C° 0 mm 2 mps 666 mmHg 45%
    03:00 +16°C° 0 mm 2 mps 666 mmHg 46%
    04:00 +16°C° 0 mm 2 mps 666 mmHg 48%
    05:00 +16°C° 0 mm 2 mps 666 mmHg 48%
    06:00 +16°C° 0 mm 3 mps 666 mmHg 48%
    07:00 +16°C° 0 mm 3 mps 666 mmHg 48%
    08:00 +19°C° 0 mm 4 mps 667 mmHg 39%
    09:00 +23°C° 0 mm 4 mps 668 mmHg 30%
    10:00 +28°C° 0 mm 5 mps 669 mmHg 22%
    11:00 +29°C° 0 mm 5 mps 669 mmHg 19%
    12:00 +30°C° 0 mm 4 mps 668 mmHg 17%
    13:00 +32°C° 0 mm 4 mps 668 mmHg 14%
    14:00 +31°C° 0 mm 3 mps 668 mmHg 14%
    15:00 +31°C° 0 mm 3 mps 667 mmHg 14%
    16:00 +31°C° 0 mm 3 mps 667 mmHg 14%
    17:00 +28°C° 0 mm 2 mps 666 mmHg 18%
    18:00 +24°C° 0 mm 2 mps 666 mmHg 22%
    19:00 +20°C° 0 mm 2 mps 665 mmHg 26%
    20:00 +19°C° 0 mm 2 mps 665 mmHg 27%
    21:00 +19°C° 0 mm 1 mps 665 mmHg 29%
    22:00 +18°C° 0 mm 1 mps 666 mmHg 30%
    23:00 +18°C° 0 mm 1 mps 666 mmHg 33%

    Tomorrow, 30 June, Friday

    Time Temperature Precipitation Wind Pressure Humidity
    00:00 +17°C° 0 mm 2 mps 666 mmHg 36%
    01:00 +16°C° 0 mm 2 mps 666 mmHg 38%
    02:00 +15°C° 0 mm 2 mps 666 mmHg 43%
    03:00 +14°C° 0 mm 1 mps 665 mmHg 48%
    04:00 +14°C° 0 mm 1 mps 665 mmHg 53%
    05:00 +14°C° 0 mm 2 mps 666 mmHg 50%
    06:00 +15°C° 0 mm 2 mps 666 mmHg 47%
    07:00 +15°C° 0 mm 2 mps 667 mmHg 43%
    08:00 +19°C° 0 mm 3 mps 668 mmHg 37%
    09:00 +24°C° 0 mm 3 mps 669 mmHg 30%
    10:00 +28°C° 0 mm 4 mps 670 mmHg 23%
    11:00 +29°C° 0 mm 4 mps 669 mmHg 21%
    12:00 +31°C° 0 mm 3 mps 669 mmHg 19%
    13:00 +33°C° 0 mm 3 mps 669 mmHg 17%
    14:00 +32°C° 0 mm 2 mps 668 mmHg 16%
    15:00 +32°C° 0 mm 2 mps 667 mmHg 16%
    16:00 +32°C° 0 mm 2 mps 667 mmHg 16%
    17:00 +28°C° 0 mm 2 mps 666 mmHg 20%
    18:00 +25°C° 0 mm 2 mps 666 mmHg 24%
    19:00 +21°C° 0 mm 2 mps 665 mmHg 29%
    20:00 +20°C° 0 mm 2 mps 666 mmHg 30%
    21:00 +19°C° 0 mm 2 mps 666 mmHg 31%
    22:00 +19°C° 0 mm 2 mps 666 mmHg 33%
    23:00 +18°C° 0 mm 2 mps 666 mmHg 34%

    Day after tomorrow, 1 July, Saturday

    Time Temperature Precipitation Wind Pressure Humidity
    00:00 +18°C° 0 mm 2 mps 666 mmHg 36%
    01:00 +17°C° 0 mm 2 mps 666 mmHg 37%
    02:00 +16°C° 0 mm 2 mps 665 mmHg 39%
    03:00 +16°C° 0 mm 2 mps 665 mmHg 41%
    04:00 +15°C° 0 mm 2 mps 665 mmHg 43%
    05:00 +15°C° 0 mm 2 mps 665 mmHg 41%
    06:00 +16°C° 0 mm 2 mps 666 mmHg 40%
    07:00 +16°C° 0 mm 2 mps 666 mmHg 38%
    08:00 +20°C° 0 mm 3 mps 667 mmHg 32%
    09:00 +25°C° 0 mm 4 mps 668 mmHg 27%
    10:00 +29°C° 0 mm 5 mps 669 mmHg 21%
    11:00 +30°C° 0 mm 4 mps 669 mmHg 19%
    12:00 +32°C° 0 mm 4 mps 668 mmHg 17%
    13:00 +34°C° 0 mm 3 mps 668 mmHg 15%
    14:00 +34°C° 0 mm 3 mps 667 mmHg 15%
    15:00 +34°C° 0 mm 2 mps 667 mmHg 14%
    16:00 +32°C° 0 mm 2 mps 666 mmHg 14%
    17:00 +29°C° 0 mm 2 mps 666 mmHg 17%
    18:00 +26°C° 0 mm 2 mps 665 mmHg 21%
    19:00 +23°C° 0 mm 2 mps 665 mmHg 25%
    20:00 +21°C° 0 mm 2 mps 666 mmHg 26%
    21:00 +20°C° 0 mm 2 mps 666 mmHg 27%
    22:00 +20°C° 0 mm 2 mps 666 mmHg 28%
    23:00 +19°C° 0 mm 2 mps 666 mmHg 36%

    2 July, Sunday

    Time Temperature Precipitation Wind Pressure Humidity
    00:00 +17°C° 0 mm 2 mps 666 mmHg 44%
    01:00 +16°C° 0 mm 1 mps 665 mmHg 52%
    02:00 +16°C° 0 mm 2 mps 665 mmHg 51%
    03:00 +15°C° 0 mm 2 mps 665 mmHg 50%
    04:00 +15°C° 0 mm 2 mps 665 mmHg 49%
    05:00 +15°C° 0 mm 2 mps 665 mmHg 47%
    06:00 +16°C° 0 mm 2 mps 666 mmHg 46%
    07:00 +16°C° 0 mm 2 mps 666 mmHg 44%
    08:00 +19°C° 0 mm 3 mps 667 mmHg 37%
    09:00 +23°C° 0 mm 4 mps 668 mmHg 30%
    10:00 +28°C° 0 mm 5 mps 669 mmHg 24%
    11:00 +29°C° 0 mm 4 mps 668 mmHg 21%
    12:00 +32°C° 0 mm 4 mps 668 mmHg 18%
    13:00 +33°C° 0 mm 3 mps 667 mmHg 16%
    14:00 +32°C° 0 mm 2 mps 667 mmHg 15%
    15:00 +32°C° 0 mm 2 mps 666 mmHg 15%
    16:00 +32°C° 0 mm 1 mps 666 mmHg 14%
    17:00 +29°C° 0 mm 1 mps 665 mmHg 19%
    18:00 +25°C° 0 mm 1 mps 665 mmHg 23%
    19:00 +22°C° 0 mm 1 mps 664 mmHg 27%
    20:00 +21°C° 0 mm 1 mps 665 mmHg 29%
    21:00 +20°C° 0 mm 2 mps 665 mmHg 30%
    22:00 +19°C° 0 mm 2 mps 666 mmHg 31%
    23:00 +18°C° 0 mm 2 mps 665 mmHg 40%

    3 July, Monday

    Time Temperature Precipitation Wind Pressure Humidity
    00:00 +17°C° 0 mm 2 mps 665 mmHg 48%
    01:00 +16°C° 0 mm 1 mps 664 mmHg 56%
    02:00 +15°C° 0 mm 1 mps 664 mmHg 57%
    03:00 +15°C° 0 mm 1 mps 664 mmHg 58%
    04:00 +15°C° 0 mm 1 mps 664 mmHg 59%
    05:00 +15°C° 0 mm 1 mps 665 mmHg 54%
    06:00 +16°C° 0 mm 2 mps 665 mmHg 49%
    07:00 +16°C° 0 mm 2 mps 666 mmHg 44%
    08:00 +20°C° 0 mm 2 mps 667 mmHg 36%
    09:00 +25°C° 0 mm 2 mps 668 mmHg 28%
    10:00 +28°C° 0 mm 2 mps 669 mmHg 21%
    11:00 +30°C° 0 mm 2 mps 668 mmHg 19%
    12:00 +32°C° 0 mm 1 mps 668 mmHg 16%
    13:00 +33°C° 0 mm 1 mps 667 mmHg 14%
    14:00 +33°C° 0 mm 1 mps 667 mmHg 14%
    15:00 +33°C° 0 mm 1 mps 666 mmHg 14%
    16:00 +30°C° 0 mm 0 mps 666 mmHg 14%
    17:00 +29°C° 0 mm 1 mps 666 mmHg 19%
    18:00 +25°C° 0 mm 1 mps 665 mmHg 24%
    19:00 +22°C° 0 mm 1 mps 665 mmHg 29%
    20:00 +20°C° 0 mm 2 mps 665 mmHg 34%
    21:00 +20°C° 0 mm 2 mps 665 mmHg 38%
    22:00 +19°C° 0 mm 2 mps 666 mmHg 43%
    23:00 +18°C° 0 mm 2 mps 665 mmHg 54%

    4 July, Tuesday

    Time Temperature Precipitation Wind Pressure Humidity
    00:00 +17°C° 0 mm 2 mps 665 mmHg 66%
    01:00 +16°C° 0 mm 2 mps 664 mmHg 77%
    02:00 +16°C° 0 mm 2 mps 664 mmHg 80%
    03:00 +15°C° 0 mm 2 mps 664 mmHg 84%
    04:00 +15°C° 0 mm 2 mps 665 mmHg 88%
    05:00 +15°C° 0 mm 1 mps 665 mmHg 85%
    06:00 +16°C° 0 mm 1 mps 666 mmHg 83%
    07:00 +16°C° 0 mm 1 mps 667 mmHg 81%
    08:00 +20°C° 0 mm 2 mps 667 mmHg 63%
    09:00 +24°C° 0 mm 2 mps 668 mmHg 45%
    10:00 +28°C° 0 mm 2 mps 669 mmHg 28%
    11:00 +30°C° 0 mm 2 mps 669 mmHg 24%
    12:00 +31°C° 0 mm 2 mps 668 mmHg 19%
    13:00 +33°C° 0 mm 1 mps 668 mmHg 15%
    14:00 +33°C° 0 mm 1 mps 667 mmHg 15%
    15:00 +33°C° 0 mm 1 mps 667 mmHg 15%
    16:00 +32°C° 0 mm 1 mps 666 mmHg 14%
    17:00 +29°C° 0 mm 1 mps 666 mmHg 19%
    18:00 +26°C° 0 mm 1 mps 665 mmHg 24%
    19:00 +21°C° 0 mm 2 mps 665 mmHg 29%
    20:00 +20°C° 0 mm 2 mps 665 mmHg 33%
    21:00 +19°C° 0 mm 2 mps 665 mmHg 38%
    22:00 +19°C° 0 mm 2 mps 666 mmHg 42%
    23:00 +18°C° 0 mm 2 mps 665 mmHg 50%
    Show more